Flag for U.S.A. Weather past 2 weeks in Santa Fe, New Mexico, U.S.A.

Now
69 °F

Clear.


Feels Like: 69 °F
Forecast: 54 / 81 °F
Wind: No wind

Location: Santa Fe County Municipal Airport

Current Time: Aug 30, 2014 at 10:43:11 PM

Latest Report: Aug 30, 2014 at 9:53 PM


Visibility: 10 mi

Pressure: 29.81 "Hg

Humidity: 38%

Dew point: 42 °F

Location of Santa FeLocation

Historic Weather in Santa Fe — Graph

°F

Santa Fe temperature yesterday

Maximum temperature yesterday: 80 °F (at 5:53 PM)
Minimum temperature yesterday: 50 °F (at 6:53 AM)
Average temperature yesterday: 66 °F

Past Weeks' High & Low Weather Summary

 TemperatureHumidityPressure
High89 °F (Aug 16, 2:53 PM)97% (Aug 23, 4:58 AM)30.31 "Hg (Aug 23, 4:58 AM)
Low48 °F (Aug 28, 5:53 AM)12% (Aug 16, 2:53 PM)29.67 "Hg (Aug 19, 4:53 PM)
Average68 °F48%29.91 "Hg
* Reported Aug 15 8:53 PM — Aug 30 8:53 PM, Santa Fe, Weather by CustomWeather, © 2014

Note: Actual official high and low records may vary slightly from our data, if they occured in-between our weather recording intervals... More about our weather records

Advertising

Santa Fe weather history for previous 24 hours

 ConditionsComfort  
Time TempWeatherWind HumidityBarometerVisibility
8:53 PM
Aug 30
73 °FClear.No wind29%29.80 "Hg10 mi
7:53 PM76 °FSunny.3 mph26%29.81 "Hg10 mi
6:53 PM80 °FSunny.9 mph20%29.82 "Hg10 mi
5:53 PM83 °FSunny.7 mph19%29.80 "Hg10 mi
4:53 PM85 °FSunny.13 mph19%29.80 "Hg10 mi
3:53 PM85 °FSunny.10 mph17%29.80 "Hg10 mi
2:53 PM85 °FSunny.13 mph17%29.82 "Hg10 mi
1:53 PM81 °FSunny.3 mph22%29.87 "Hg10 mi
12:53 PM81 °FSunny.12 mph24%29.91 "Hg10 mi
11:53 AM79 °FSunny.10 mph26%29.92 "Hg10 mi
10:53 AM75 °FSunny.5 mph30%29.96 "Hg10 mi
9:53 AM72 °FSunny.6 mph35%29.96 "Hg10 mi
8:53 AM69 °FSunny.6 mph38%29.97 "Hg10 mi
7:53 AM60 °FSunny.7 mph52%29.98 "Hg10 mi
6:53 AM53 °FClear.8 mph66%29.98 "Hg10 mi
5:53 AM54 °FClear.No wind64%29.94 "Hg10 mi
4:53 AM56 °FClear.No wind58%29.93 "Hg10 mi
3:53 AM60 °FClear.9 mph52%29.92 "Hg10 mi
2:53 AM63 °FClear.No wind45%29.91 "Hg10 mi
1:53 AM61 °FClear.7 mph50%29.92 "Hg10 mi
12:53 AM57 °FClear.No wind60%29.94 "Hg10 mi
11:53 PM
Aug 29
60 °FClear.No wind53%29.93 "Hg10 mi
10:53 PM60 °FClear.No wind53%29.93 "Hg10 mi
Weather by CustomWeather, © 2014

See weather overviewHow to use our weather pages